Time,TemperatureF,DewpointF,PressureIn,WindDirection,WindDirectionDegrees,WindSpeedMPH,WindSpeedGustMPH,Humidity,HourlyPrecipIn,Conditions,Clouds,dailyrainin,SolarRadiationWatts/m^2,SoftwareType,DateUTC
2013-02-22 00:00:00,66.0,57.5,29.78,ENE,69,10.4,10.4,74,0.00,-RA,SKC,0.00,0.0,WeatherDisplay:10.37,2013-02-22 06:00:00,
2013-02-22 00:05:00,66.1,57.6,29.78,NE,36,10.4,10.4,74,0.00,-RA,SKC,0.00,0.0,WeatherDisplay:10.37,2013-02-22 06:05:00,
2013-02-22 00:10:00,66.1,57.9,29.78,NE,49,9.2,9.2,75,0.00,-RA,SKC,0.00,0.0,WeatherDisplay:10.37,2013-02-22 06:10:00,
2013-02-22 00:15:00,66.1,57.6,29.78,ENE,78,11.5,11.5,74,0.00,-RA,SKC,0.00,0.0,WeatherDisplay:10.37,2013-02-22 06:15:00,
2013-02-22 00:20:00,66.2,58.0,29.78,ENE,71,6.9,6.9,75,0.00,-RA,SKC,0.00,0.0,WeatherDisplay:10.37,2013-02-22 06:20:00,
2013-02-22 00:25:00,66.1,57.9,29.78,ENE,70,8.0,8.0,75,0.00,-RA,SKC,0.00,0.0,WeatherDisplay:10.37,2013-02-22 06:25:00,
2013-02-22 00:30:00,66.2,58.0,29.78,NE,56,10.4,10.4,75,0.00,-RA,SKC,0.00,0.0,WeatherDisplay:10.37,2013-02-22 06:30:00,
2013-02-22 00:35:00,66.2,58.0,29.78,ENE,76,9.2,9.2,75,0.00,-RA,SKC,0.00,0.0,WeatherDisplay:10.37,2013-02-22 06:35:00,
2013-02-22 00:40:00,66.2,58.0,29.78,ENE,76,10.4,10.4,75,0.00,-RA,SKC,0.00,0.0,WeatherDisplay:10.37,2013-02-22 06:40:00,
2013-02-22 00:45:00,66.2,58.4,29.78,ENE,67,11.5,11.5,76,0.00,-RA,SKC,0.00,0.0,WeatherDisplay:10.37,2013-02-22 06:45:00,
2013-02-22 00:50:00,66.1,58.3,29.78,ENE,70,10.4,10.4,76,0.00,-RA,SKC,0.00,0.0,WeatherDisplay:10.37,2013-02-22 06:50:00,
2013-02-22 00:55:00,66.2,58.4,29.78,ENE,74,10.4,10.4,76,0.00,-RA,SKC,0.00,0.0,WeatherDisplay:10.37,2013-02-22 06:55:00,
2013-02-22 01:00:00,66.4,58.6,29.77,ENE,67,11.5,11.5,76,0.00,-RA,SKC,0.00,0.0,WeatherDisplay:10.37,2013-02-22 07:00:00,
2013-02-22 01:05:00,66.4,58.6,29.77,ENE,61,10.4,10.4,76,0.00,-RA,SKC,0.00,0.0,WeatherDisplay:10.37,2013-02-22 07:05:00,
2013-02-22 01:10:00,66.2,58.8,29.77,ENE,61,10.4,10.4,77,0.00,-RA,SKC,0.00,0.0,WeatherDisplay:10.37,2013-02-22 07:10:00,
2013-02-22 01:15:00,66.1,58.7,29.77,ENE,67,11.5,11.5,77,0.00,-RA,SKC,0.00,0.0,WeatherDisplay:10.37,2013-02-22 07:15:00,
2013-02-22 01:20:00,66.1,59.0,29.77,East,82,11.5,11.5,78,0.00,-RA,SKC,0.00,0.0,WeatherDisplay:10.37,2013-02-22 07:20:00,
2013-02-22 01:25:00,66.1,59.0,29.77,ENE,78,8.1,8.1,78,0.00,-RA,SKC,0.00,0.0,WeatherDisplay:10.37,2013-02-22 07:25:00,
2013-02-22 01:30:00,66.0,59.3,29.78,NE,49,10.4,10.4,79,0.00,-RA,SKC,0.00,0.0,WeatherDisplay:10.37,2013-02-22 07:30:00,
2013-02-22 01:35:00,65.9,59.2,29.78,East,89,9.2,9.2,79,0.00,-RA,SKC,0.00,0.0,WeatherDisplay:10.37,2013-02-22 07:35:00,
2013-02-22 01:40:00,65.7,59.4,29.78,East,92,5.0,5.0,80,0.00,-RA,SKC,0.00,0.0,WeatherDisplay:10.37,2013-02-22 07:40:00,
2013-02-22 01:45:00,65.6,59.3,29.79,ENE,75,10.4,10.4,80,0.00,-RA,SKC,0.00,0.0,WeatherDisplay:10.37,2013-02-22 07:45:00,
2013-02-22 01:50:00,65.5,59.5,29.79,ENE,69,4.6,4.6,81,0.00,-RA,SKC,0.00,0.0,WeatherDisplay:10.37,2013-02-22 07:50:00,
2013-02-22 01:55:00,65.4,59.8,29.79,ENE,76,4.0,4.0,82,0.00,-RA,SKC,0.00,0.0,WeatherDisplay:10.37,2013-02-22 07:55:00,
2013-02-22 02:00:00,65.3,59.7,29.79,ENE,72,8.1,8.1,82,0.00,-RA,SKC,0.00,0.0,WeatherDisplay:10.37,2013-02-22 08:00:00,
2013-02-22 02:05:00,65.4,59.8,29.79,East,95,6.9,6.9,82,0.00,-SN,SKC,0.00,0.0,WeatherDisplay:10.37,2013-02-22 08:05:00,
2013-02-22 02:10:00,65.5,59.9,29.79,East,80,4.6,4.6,82,0.00,-SN,SKC,0.00,0.0,WeatherDisplay:10.37,2013-02-22 08:10:00,
2013-02-22 02:15:00,65.6,60.0,29.79,East,86,5.0,5.0,82,0.00,-SN,SKC,0.00,0.0,WeatherDisplay:10.37,2013-02-22 08:15:00,
2013-02-22 02:20:00,65.6,60.0,29.79,East,85,5.0,5.0,82,0.00,-SN,SKC,0.00,0.0,WeatherDisplay:10.37,2013-02-22 08:20:00,
2013-02-22 02:25:00,65.8,60.2,29.79,ENE,65,5.8,5.8,82,0.00,-SN,SKC,0.00,0.0,WeatherDisplay:10.37,2013-02-22 08:25:00,
2013-02-22 02:30:00,66.0,60.0,29.79,ENE,62,5.8,5.8,81,0.00,-SN,SKC,0.00,0.0,WeatherDisplay:10.37,2013-02-22 08:30:00,
2013-02-22 02:35:00,66.0,60.0,29.79,NE,53,4.6,4.6,81,0.00,-SN,SKC,0.00,0.0,WeatherDisplay:10.37,2013-02-22 08:35:00,
2013-02-22 02:40:00,65.6,60.0,29.79,ENE,63,5.0,5.0,82,0.00,-SN,SKC,0.00,0.0,WeatherDisplay:10.37,2013-02-22 08:40:00,
2013-02-22 02:45:00,65.3,60.0,29.78,ENE,61,4.0,4.0,83,0.00,-SN,SKC,0.00,0.0,WeatherDisplay:10.37,2013-02-22 08:45:00,
2013-02-22 02:50:00,65.3,60.3,29.78,ENE,66,4.6,4.6,84,0.00,-SN,SKC,0.00,0.0,WeatherDisplay:10.37,2013-02-22 08:50:00,
2013-02-22 02:55:00,65.4,60.1,29.78,NE,38,4.6,4.6,83,0.00,-SN,SKC,0.00,0.0,WeatherDisplay:10.37,2013-02-22 08:55:00,
2013-02-22 03:00:00,65.3,60.0,29.77,NE,54,4.0,4.0,83,0.00,-SN,SKC,0.00,0.0,WeatherDisplay:10.37,2013-02-22 09:00:00,
2013-02-22 03:05:00,65.3,60.3,29.77,NE,52,5.0,5.0,84,0.00, +RA,SKC,0.00,0.0,WeatherDisplay:10.37,2013-02-22 09:05:00,
2013-02-22 03:10:00,65.3,60.3,29.77,ENE,58,6.0,6.0,84,0.00, +RA,SKC,0.00,0.0,WeatherDisplay:10.37,2013-02-22 09:10:00,
2013-02-22 03:15:00,65.5,60.5,29.78,ENE,57,5.8,5.8,84,0.00, +RA,SKC,0.00,0.0,WeatherDisplay:10.37,2013-02-22 09:15:00,
2013-02-22 03:20:00,65.7,60.4,29.78,ENE,57,6.9,6.9,83,0.00, +RA,SKC,0.00,0.0,WeatherDisplay:10.37,2013-02-22 09:20:00,
2013-02-22 03:25:00,65.8,60.5,29.78,NNE,28,3.5,3.5,83,0.00, +RA,SKC,0.00,0.0,WeatherDisplay:10.37,2013-02-22 09:25:00,
2013-02-22 03:30:00,65.5,60.5,29.78,North,5,3.5,3.5,84,0.00, +RA,SKC,0.00,0.0,WeatherDisplay:10.37,2013-02-22 09:30:00,
2013-02-22 03:35:00,65.4,60.4,29.78,NNE,19,5.8,5.8,84,0.00, +RA,SKC,0.00,0.0,WeatherDisplay:10.37,2013-02-22 09:35:00,
2013-02-22 03:40:00,65.4,60.8,29.78,NNW,329,7.0,7.0,85,0.00, +RA,SKC,0.00,0.0,WeatherDisplay:10.37,2013-02-22 09:40:00,
2013-02-22 03:45:00,65.5,60.9,29.78,North,11,10.4,10.4,85,0.00, +RA,SKC,0.00,0.0,WeatherDisplay:10.37,2013-02-22 09:45:00,
2013-02-22 03:50:00,65.6,61.0,29.78,NNE,22,5.8,5.8,85,0.00, +RA,SKC,0.00,0.0,WeatherDisplay:10.37,2013-02-22 09:50:00,
2013-02-22 03:55:00,65.6,61.0,29.78,NNE,17,5.0,5.0,85,0.00, +RA,SKC,0.00,0.0,WeatherDisplay:10.37,2013-02-22 09:55:00,
2013-02-22 04:00:00,65.6,61.0,29.78,NNE,21,5.8,5.8,85,0.00, +RA,SKC,0.00,0.0,WeatherDisplay:10.37,2013-02-22 10:00:00,
2013-02-22 04:05:00,65.7,61.1,29.78,NE,38,5.8,5.8,85,0.00,-RA,SKC,0.00,0.0,WeatherDisplay:10.37,2013-02-22 10:05:00,
2013-02-22 04:10:00,65.6,61.0,29.78,North,5,6.0,6.0,85,0.00,-RA,SKC,0.00,0.0,WeatherDisplay:10.37,2013-02-22 10:10:00,
2013-02-22 04:15:00,65.6,61.0,29.78,NNE,26,6.9,6.9,85,0.00,-RA,SKC,0.00,0.0,WeatherDisplay:10.37,2013-02-22 10:15:00,
2013-02-22 04:20:00,65.6,61.0,29.78,NNE,20,4.6,4.6,85,0.00,-RA,SKC,0.00,0.0,WeatherDisplay:10.37,2013-02-22 10:20:00,
2013-02-22 04:25:00,65.6,61.0,29.78,NNE,26,5.8,5.8,85,0.00,-RA,SKC,0.00,0.0,WeatherDisplay:10.37,2013-02-22 10:25:00,
2013-02-22 04:30:00,65.6,61.0,29.78,North,360,4.6,4.6,85,0.00,-RA,SKC,0.00,0.0,WeatherDisplay:10.37,2013-02-22 10:30:00,
2013-02-22 04:35:00,65.6,60.6,29.78,NE,46,4.6,4.6,84,0.00,-RA,SKC,0.00,0.0,WeatherDisplay:10.37,2013-02-22 10:35:00,
2013-02-22 04:40:00,65.6,60.6,29.78,NNE,14,6.0,6.0,84,0.00,-RA,SKC,0.00,0.0,WeatherDisplay:10.37,2013-02-22 10:40:00,
2013-02-22 04:45:00,65.5,60.2,29.78,NE,35,9.2,9.2,83,0.00,-RA,SKC,0.00,0.0,WeatherDisplay:10.37,2013-02-22 10:45:00,
2013-02-22 04:50:00,65.5,60.2,29.78,ENE,57,8.1,8.1,83,0.00,-RA,SKC,0.00,0.0,WeatherDisplay:10.37,2013-02-22 10:50:00,
2013-02-22 04:55:00,65.4,60.1,29.78,NE,56,7.0,7.0,83,0.00,-RA,SKC,0.00,0.0,WeatherDisplay:10.37,2013-02-22 10:55:00,
2013-02-22 05:00:00,65.4,60.1,29.78,NNE,26,9.2,9.2,83,0.00,-RA,SKC,0.00,0.0,WeatherDisplay:10.37,2013-02-22 11:00:00,
2013-02-22 05:05:00,65.3,60.0,29.78,NNE,14,9.2,9.2,83,0.00,-RA,SKC,0.00,0.0,WeatherDisplay:10.37,2013-02-22 11:05:00,
2013-02-22 05:10:00,65.3,60.0,29.78,NNE,23,9.2,9.2,83,0.00,-RA,SKC,0.00,0.0,WeatherDisplay:10.37,2013-02-22 11:10:00,
2013-02-22 05:15:00,65.4,59.8,29.78,NNE,21,11.5,11.5,82,0.00,-RA,SKC,0.00,0.0,WeatherDisplay:10.37,2013-02-22 11:15:00,
2013-02-22 05:20:00,65.4,59.8,29.78,NNE,32,10.4,10.4,82,0.00,-RA,SKC,0.00,0.0,WeatherDisplay:10.37,2013-02-22 11:20:00,
2013-02-22 05:25:00,65.5,60.2,29.78,NNE,19,9.2,9.2,83,0.00,-RA,SKC,0.00,0.0,WeatherDisplay:10.37,2013-02-22 11:25:00,
2013-02-22 05:30:00,65.5,59.9,29.79,NNE,23,11.5,11.5,82,0.00,-RA,SKC,0.00,0.0,WeatherDisplay:10.37,2013-02-22 11:30:00,
2013-02-22 05:35:00,65.4,59.8,29.79,NNE,18,10.4,10.4,82,0.00,-RA,SKC,0.00,0.0,WeatherDisplay:10.37,2013-02-22 11:35:00,
2013-02-22 05:40:00,65.4,60.1,29.79,NE,40,9.2,9.2,83,0.00,-RA,SKC,0.00,0.0,WeatherDisplay:10.37,2013-02-22 11:40:00,
2013-02-22 05:45:00,65.4,60.1,29.79,NE,35,10.0,10.0,83,0.00,-RA,SKC,0.00,0.0,WeatherDisplay:10.37,2013-02-22 11:45:00,
2013-02-22 05:50:00,65.5,59.9,29.79,NE,53,6.9,6.9,82,0.00,-RA,SKC,0.00,0.0,WeatherDisplay:10.37,2013-02-22 11:50:00,
2013-02-22 05:55:00,65.5,59.9,29.79,NE,55,11.5,11.5,82,0.00,-RA,SKC,0.00,0.0,WeatherDisplay:10.37,2013-02-22 11:55:00,
2013-02-22 06:00:00,65.4,59.8,29.79,ENE,65,12.7,12.7,82,0.00,-RA,SKC,0.00,0.0,WeatherDisplay:10.37,2013-02-22 12:00:00,
2013-02-22 06:05:00,65.3,59.7,29.79,NE,51,14.0,14.0,82,0.00, +RA,SKC,0.00,0.0,WeatherDisplay:10.37,2013-02-22 12:05:00,
2013-02-22 06:10:00,65.3,59.7,29.79,NE,42,11.5,11.5,82,0.00, +RA,SKC,0.00,0.0,WeatherDisplay:10.37,2013-02-22 12:10:00,
2013-02-22 06:15:00,65.3,59.7,29.79,NE,55,12.7,12.7,82,0.00, +RA,SKC,0.00,0.0,WeatherDisplay:10.37,2013-02-22 12:15:00,
2013-02-22 06:20:00,65.3,59.3,29.79,NE,49,13.8,13.8,81,0.00, +RA,SKC,0.00,0.0,WeatherDisplay:10.37,2013-02-22 12:20:00,
2013-02-22 06:25:00,65.3,59.3,29.79,NE,39,15.0,15.0,81,0.00, +RA,SKC,0.00,0.0,WeatherDisplay:10.37,2013-02-22 12:25:00,
2013-02-22 06:30:00,65.2,59.2,29.79,NE,46,13.8,13.8,81,0.00, +RA,SKC,0.00,0.0,WeatherDisplay:10.37,2013-02-22 12:30:00,
2013-02-22 06:35:00,65.0,59.0,29.79,ENE,58,11.5,11.5,81,0.00, +RA,SKC,0.00,0.0,WeatherDisplay:10.37,2013-02-22 12:35:00,
2013-02-22 06:40:00,65.0,58.7,29.79,NE,47,15.0,15.0,80,0.00, +RA,SKC,0.00,0.0,WeatherDisplay:10.37,2013-02-22 12:40:00,
2013-02-22 06:45:00,65.0,58.7,29.80,NE,55,13.8,13.8,80,0.00, +RA,SKC,0.00,0.0,WeatherDisplay:10.37,2013-02-22 12:45:00,
2013-02-22 06:50:00,65.0,58.3,29.80,NNE,20,15.0,15.0,79,0.00, +RA,SKC,0.00,0.0,WeatherDisplay:10.37,2013-02-22 12:50:00,
2013-02-22 06:55:00,65.0,58.3,29.80,NE,48,15.0,15.0,79,0.00, +RA,SKC,0.00,0.0,WeatherDisplay:10.37,2013-02-22 12:55:00,
2013-02-22 07:00:00,65.0,58.0,29.80,ENE,57,17.3,17.3,78,0.00, +RA,SKC,0.00,0.0,WeatherDisplay:10.37,2013-02-22 13:00:00,
2013-02-22 07:05:00,64.9,57.9,29.80,NE,45,16.1,16.1,78,0.00,-RA,SKC,0.00,0.0,WeatherDisplay:10.37,2013-02-22 13:05:00,
2013-02-22 07:10:00,64.8,57.8,29.80,NNE,30,16.1,16.1,78,0.00,-RA,SKC,0.00,0.0,WeatherDisplay:10.37,2013-02-22 13:10:00,
2013-02-22 07:15:00,64.8,57.4,29.81,NNE,32,15.0,15.0,77,0.00,-RA,SKC,0.00,5.0,WeatherDisplay:10.37,2013-02-22 13:15:00,
2013-02-22 07:20:00,64.9,57.5,29.81,NE,40,16.1,16.1,77,0.00,-RA,SKC,0.00,7.0,WeatherDisplay:10.37,2013-02-22 13:20:00,
2013-02-22 07:25:00,64.9,57.5,29.81,North,11,17.3,17.3,77,0.00,-RA,SKC,0.00,11.0,WeatherDisplay:10.37,2013-02-22 13:25:00,
2013-02-22 07:30:00,64.9,57.5,29.82,NE,38,12.7,12.7,77,0.00,-RA,SKC,0.00,12.0,WeatherDisplay:10.37,2013-02-22 13:30:00,
2013-02-22 07:35:00,64.8,57.4,29.82,NE,42,13.8,13.8,77,0.00,-RA,SKC,0.00,21.0,WeatherDisplay:10.37,2013-02-22 13:35:00,
2013-02-22 07:40:00,64.8,57.1,29.82,NE,40,16.1,16.1,76,0.00,-RA,SKC,0.00,28.0,WeatherDisplay:10.37,2013-02-22 13:40:00,
2013-02-22 07:45:00,64.8,56.7,29.82,NE,40,17.3,17.3,75,0.00,-RA,SKC,0.00,49.0,WeatherDisplay:10.37,2013-02-22 13:45:00,
2013-02-22 07:50:00,64.9,57.2,29.82,NE,35,16.1,16.1,76,0.00,-RA,SKC,0.00,54.0,WeatherDisplay:10.37,2013-02-22 13:50:00,
2013-02-22 07:55:00,64.9,56.8,29.82,ENE,74,15.0,15.0,75,0.00,-RA,SKC,0.00,84.0,WeatherDisplay:10.37,2013-02-22 13:55:00,
2013-02-22 08:00:00,65.0,56.9,29.83,NE,49,15.0,15.0,75,0.00,-RA,SKC,0.00,72.0,WeatherDisplay:10.37,2013-02-22 14:00:00,
2013-02-22 08:05:00,65.0,56.5,29.83,NE,49,16.1,16.1,74,0.00,-RA,SKC,0.00,81.0,WeatherDisplay:10.37,2013-02-22 14:05:00,
2013-02-22 08:10:00,65.1,56.6,29.83,ENE,67,13.8,13.8,74,0.00,-RA,SKC,0.00,70.0,WeatherDisplay:10.37,2013-02-22 14:10:00,
2013-02-22 08:15:00,65.2,56.3,29.84,NE,56,16.1,16.1,73,0.00,-RA,SKC,0.00,56.0,WeatherDisplay:10.37,2013-02-22 14:15:00,
2013-02-22 08:20:00,65.3,55.7,29.84,ENE,62,18.4,18.4,71,0.00,-RA,SKC,0.00,67.0,WeatherDisplay:10.37,2013-02-22 14:20:00,
2013-02-22 08:25:00,65.4,55.4,29.84,NE,48,15.0,15.0,70,0.00,-RA,SKC,0.00,84.0,WeatherDisplay:10.37,2013-02-22 14:25:00,
2013-02-22 08:30:00,65.5,55.5,29.85,NE,56,15.0,15.0,70,0.00,-RA,SKC,0.00,74.0,WeatherDisplay:10.37,2013-02-22 14:30:00,
2013-02-22 08:35:00,65.6,54.3,29.85,NNE,28,19.6,19.6,67,0.00,-RA,SKC,0.00,93.0,WeatherDisplay:10.37,2013-02-22 14:35:00,
2013-02-22 08:40:00,65.7,54.4,29.85,NE,38,19.6,19.6,67,0.00,-RA,SKC,0.00,79.0,WeatherDisplay:10.37,2013-02-22 14:40:00,
2013-02-22 08:45:00,65.8,54.1,29.85,ENE,65,21.0,21.0,66,0.00,-RA,SKC,0.00,86.0,WeatherDisplay:10.37,2013-02-22 14:45:00,
2013-02-22 08:50:00,65.9,54.2,29.85,NE,42,17.3,17.3,66,0.00,-RA,SKC,0.00,206.0,WeatherDisplay:10.37,2013-02-22 14:50:00,
2013-02-22 08:55:00,66.0,53.9,29.85,NE,40,18.4,18.4,65,0.00,-RA,SKC,0.00,130.0,WeatherDisplay:10.37,2013-02-22 14:55:00,
2013-02-22 09:00:00,66.1,53.6,29.85,NNE,31,19.6,19.6,64,0.00,-RA,SKC,0.00,128.0,WeatherDisplay:10.37,2013-02-22 15:00:00,
2013-02-22 09:05:00,66.1,53.1,29.85,ENE,64,19.6,19.6,63,0.00,BKN,SKC,0.00,114.0,WeatherDisplay:10.37,2013-02-22 15:05:00,
2013-02-22 09:10:00,66.1,53.1,29.85,NE,42,17.3,17.3,63,0.00,BKN,SKC,0.00,151.0,WeatherDisplay:10.37,2013-02-22 15:10:00,
2013-02-22 09:15:00,66.3,52.4,29.87,NE,51,18.4,18.4,61,0.00,BKN,SKC,0.00,186.0,WeatherDisplay:10.37,2013-02-22 15:15:00,
2013-02-22 09:20:00,66.4,53.0,29.87,NE,47,17.3,17.3,62,0.00,BKN,SKC,0.00,185.0,WeatherDisplay:10.37,2013-02-22 15:20:00,
2013-02-22 09:25:00,66.4,52.5,29.87,ENE,60,17.3,17.3,61,0.00,BKN,SKC,0.00,200.0,WeatherDisplay:10.37,2013-02-22 15:25:00,
2013-02-22 09:30:00,66.5,52.2,29.87,NNE,32,21.9,21.9,60,0.00,BKN,SKC,0.00,199.0,WeatherDisplay:10.37,2013-02-22 15:30:00,
2013-02-22 09:35:00,66.5,52.2,29.87,ENE,64,17.3,17.3,60,0.00,BKN,SKC,0.00,158.0,WeatherDisplay:10.37,2013-02-22 15:35:00,
2013-02-22 09:40:00,66.5,52.6,29.87,NE,44,18.4,18.4,61,0.00,BKN,SKC,0.00,190.0,WeatherDisplay:10.37,2013-02-22 15:40:00,
2013-02-22 09:45:00,66.5,51.7,29.87,ENE,57,23.0,23.0,59,0.00,BKN,SKC,0.00,229.0,WeatherDisplay:10.37,2013-02-22 15:45:00,
2013-02-22 09:50:00,66.4,52.1,29.87,NNE,33,24.2,24.2,60,0.00,BKN,SKC,0.00,276.0,WeatherDisplay:10.37,2013-02-22 15:50:00,
2013-02-22 09:55:00,66.5,52.2,29.87,NE,51,20.0,20.0,60,0.00,BKN,SKC,0.00,301.0,WeatherDisplay:10.37,2013-02-22 15:55:00,
2013-02-22 10:00:00,66.7,52.4,29.87,NNE,32,17.3,17.3,60,0.00,BKN,SKC,0.00,264.0,WeatherDisplay:10.37,2013-02-22 16:00:00,
2013-02-22 10:05:00,66.7,51.9,29.87,NE,38,19.6,19.6,59,0.00,-RA,SKC,0.00,243.0,WeatherDisplay:10.37,2013-02-22 16:05:00,
2013-02-22 10:10:00,66.8,52.5,29.87,NNE,30,16.1,16.1,60,0.00,-RA,SKC,0.00,153.0,WeatherDisplay:10.37,2013-02-22 16:10:00,
2013-02-22 10:15:00,66.7,51.5,29.88,NE,46,17.3,17.3,58,0.00,-RA,SKC,0.00,158.0,WeatherDisplay:10.37,2013-02-22 16:15:00,
2013-02-22 10:20:00,66.5,51.3,29.88,NE,34,18.4,18.4,58,0.00,-RA,SKC,0.00,278.0,WeatherDisplay:10.37,2013-02-22 16:20:00,
2013-02-22 10:25:00,66.5,51.7,29.88,NE,55,18.0,18.0,59,0.00,-RA,SKC,0.00,236.0,WeatherDisplay:10.37,2013-02-22 16:25:00,
2013-02-22 10:30:00,66.3,51.5,29.88,NNE,32,19.6,19.6,59,0.00,-RA,SKC,0.00,169.0,WeatherDisplay:10.37,2013-02-22 16:30:00,
2013-02-22 10:35:00,66.1,50.9,29.88,NE,39,24.2,24.2,58,0.00,-RA,SKC,0.00,158.0,WeatherDisplay:10.37,2013-02-22 16:35:00,
2013-02-22 10:40:00,66.0,51.3,29.88,NE,53,23.0,23.0,59,0.00,-RA,SKC,0.00,156.0,WeatherDisplay:10.37,2013-02-22 16:40:00,
2013-02-22 10:45:00,66.0,51.3,29.89,NE,45,16.0,16.0,59,0.00,-RA,SKC,0.00,220.0,WeatherDisplay:10.37,2013-02-22 16:45:00,
2013-02-22 10:50:00,66.1,51.4,29.89,NE,38,19.6,19.6,59,0.00,-RA,SKC,0.00,316.0,WeatherDisplay:10.37,2013-02-22 16:50:00,
2013-02-22 10:55:00,66.2,51.4,29.89,NE,49,23.0,23.0,59,0.00,-RA,SKC,0.00,241.0,WeatherDisplay:10.37,2013-02-22 16:55:00,
2013-02-22 11:00:00,66.1,51.4,29.88,NE,54,19.6,19.6,59,0.00,-RA,SKC,0.00,392.0,WeatherDisplay:10.37,2013-02-22 17:00:00,
2013-02-22 11:05:00,66.2,51.0,29.88,NE,52,19.6,19.6,58,0.00,OVC,SKC,0.00,411.0,WeatherDisplay:10.37,2013-02-22 17:05:00,
2013-02-22 11:10:00,66.3,51.1,29.88,NE,40,21.9,21.9,58,0.00,OVC,SKC,0.00,501.0,WeatherDisplay:10.37,2013-02-22 17:10:00,
2013-02-22 11:15:00,66.4,51.6,29.88,ENE,73,24.0,24.0,59,0.00,OVC,SKC,0.00,515.0,WeatherDisplay:10.37,2013-02-22 17:15:00,
2013-02-22 11:20:00,66.4,51.2,29.88,ENE,61,20.7,20.7,58,0.00,OVC,SKC,0.00,401.0,WeatherDisplay:10.37,2013-02-22 17:20:00,
2013-02-22 11:25:00,66.3,51.1,29.88,ENE,74,19.6,19.6,58,0.00,OVC,SKC,0.00,343.0,WeatherDisplay:10.37,2013-02-22 17:25:00,
2013-02-22 11:30:00,66.2,51.9,29.87,NE,51,18.4,18.4,60,0.00,OVC,SKC,0.00,330.0,WeatherDisplay:10.37,2013-02-22 17:30:00,
2013-02-22 11:35:00,66.0,51.7,29.87,NE,51,21.9,21.9,60,0.00,OVC,SKC,0.00,336.0,WeatherDisplay:10.37,2013-02-22 17:35:00,
2013-02-22 11:40:00,66.1,50.4,29.87,NNE,30,23.0,23.0,57,0.00,OVC,SKC,0.00,334.0,WeatherDisplay:10.37,2013-02-22 17:40:00,
2013-02-22 11:45:00,66.1,50.4,29.87,NE,53,24.2,24.2,57,0.00,OVC,SKC,0.00,357.0,WeatherDisplay:10.37,2013-02-22 17:45:00,
2013-02-22 11:50:00,66.1,49.5,29.87,NE,37,23.0,23.0,55,0.00,OVC,SKC,0.00,376.0,WeatherDisplay:10.37,2013-02-22 17:50:00,
2013-02-22 11:55:00,66.3,49.6,29.87,NE,41,24.2,24.2,55,0.00,OVC,SKC,0.00,350.0,WeatherDisplay:10.37,2013-02-22 17:55:00,
2013-02-22 12:00:00,66.4,49.7,29.87,NE,55,21.9,21.9,55,0.00,OVC,SKC,0.00,338.0,WeatherDisplay:10.37,2013-02-22 18:00:00,
2013-02-22 12:05:00,66.7,49.5,29.87,NE,38,24.2,24.2,54,0.00,-RA,SKC,0.00,265.0,WeatherDisplay:10.37,2013-02-22 18:05:00,
2013-02-22 12:10:00,66.7,49.5,29.87,ENE,73,26.5,26.5,54,0.00,-RA,SKC,0.00,285.0,WeatherDisplay:10.37,2013-02-22 18:10:00,
2013-02-22 12:15:00,66.6,49.9,29.87,NE,39,21.9,21.9,55,0.00,-RA,SKC,0.00,422.0,WeatherDisplay:10.37,2013-02-22 18:15:00,
2013-02-22 12:20:00,66.8,50.6,29.87,NE,51,19.6,19.6,56,0.00,-RA,SKC,0.00,708.0,WeatherDisplay:10.37,2013-02-22 18:20:00,
2013-02-22 12:25:00,66.7,50.0,29.87,NE,47,21.9,21.9,55,0.00,-RA,SKC,0.00,422.0,WeatherDisplay:10.37,2013-02-22 18:25:00,
2013-02-22 12:30:00,66.8,50.1,29.86,NE,49,21.9,21.9,55,0.00,-RA,SKC,0.00,281.0,WeatherDisplay:10.37,2013-02-22 18:30:00,
2013-02-22 12:35:00,66.5,49.8,29.86,ENE,58,20.7,20.7,55,0.00,-RA,SKC,0.00,313.0,WeatherDisplay:10.37,2013-02-22 18:35:00,
2013-02-22 12:40:00,66.5,50.8,29.86,NE,44,21.0,21.0,57,0.00,-RA,SKC,0.00,371.0,WeatherDisplay:10.37,2013-02-22 18:40:00,
2013-02-22 12:45:00,66.4,50.7,29.85,NE,55,20.0,20.0,57,0.00,-RA,SKC,0.00,404.0,WeatherDisplay:10.37,2013-02-22 18:45:00,
2013-02-22 12:50:00,66.3,51.1,29.85,ENE,68,19.0,19.0,58,0.00,-RA,SKC,0.00,438.0,WeatherDisplay:10.37,2013-02-22 18:50:00,
2013-02-22 12:55:00,66.7,51.5,29.85,NE,52,21.9,21.9,58,0.00,-RA,SKC,0.00,749.0,WeatherDisplay:10.37,2013-02-22 18:55:00,
2013-02-22 13:00:00,66.7,51.5,29.84,East,84,13.8,13.8,58,0.00,-RA,SKC,0.00,575.0,WeatherDisplay:10.37,2013-02-22 19:00:00,
2013-02-22 13:05:00,66.9,50.2,29.84,ENE,63,26.5,26.5,55,0.00,-RA,SKC,0.00,260.0,WeatherDisplay:10.37,2013-02-22 19:05:00,
2013-02-22 13:10:00,66.6,50.9,29.84,NE,47,17.3,17.3,57,0.00,-RA,SKC,0.00,264.0,WeatherDisplay:10.37,2013-02-22 19:10:00,
2013-02-22 13:15:00,66.1,50.4,29.83,NNE,20,17.3,17.3,57,0.00,-RA,SKC,0.00,246.0,WeatherDisplay:10.37,2013-02-22 19:15:00,
2013-02-22 13:20:00,65.8,51.1,29.83,NE,55,19.6,19.6,59,0.00,-RA,SKC,0.00,487.0,WeatherDisplay:10.37,2013-02-22 19:20:00,
2013-02-22 13:25:00,65.9,50.7,29.83,NE,38,19.6,19.6,58,0.00,-RA,SKC,0.00,485.0,WeatherDisplay:10.37,2013-02-22 19:25:00,
2013-02-22 13:30:00,66.0,50.3,29.84,NE,48,21.9,21.9,57,0.00,-RA,SKC,0.00,330.0,WeatherDisplay:10.37,2013-02-22 19:30:00,
2013-02-22 13:35:00,65.9,50.7,29.84,NE,53,16.1,16.1,58,0.00,-RA,SKC,0.00,446.0,WeatherDisplay:10.37,2013-02-22 19:35:00,
2013-02-22 13:40:00,65.9,50.7,29.84,NE,46,18.4,18.4,58,0.00,-RA,SKC,0.00,276.0,WeatherDisplay:10.37,2013-02-22 19:40:00,
2013-02-22 13:45:00,65.7,51.0,29.83,NNE,27,12.7,12.7,59,0.00,-RA,SKC,0.00,206.0,WeatherDisplay:10.37,2013-02-22 19:45:00,
2013-02-22 13:50:00,65.6,50.4,29.83,NE,51,15.0,15.0,58,0.00,-RA,SKC,0.00,176.0,WeatherDisplay:10.37,2013-02-22 19:50:00,
2013-02-22 13:55:00,65.7,50.0,29.83,NNE,15,19.6,19.6,57,0.00,-RA,SKC,0.00,206.0,WeatherDisplay:10.37,2013-02-22 19:55:00,
2013-02-22 14:00:00,65.6,50.4,29.83,NNE,21,19.6,19.6,58,0.00,-RA,SKC,0.00,213.0,WeatherDisplay:10.37,2013-02-22 20:00:00,
2013-02-22 14:05:00,65.4,49.8,29.83,NNE,33,21.9,21.9,57,0.00,-RA,SKC,0.00,190.0,WeatherDisplay:10.37,2013-02-22 20:05:00,
2013-02-22 14:10:00,65.3,51.1,29.83,ENE,76,18.4,18.4,60,0.00,-RA,SKC,0.00,271.0,WeatherDisplay:10.37,2013-02-22 20:10:00,
2013-02-22 14:15:00,65.3,50.6,29.81,NE,36,18.4,18.4,59,0.00,-RA,SKC,0.00,264.0,WeatherDisplay:10.37,2013-02-22 20:15:00,
2013-02-22 14:20:00,65.6,50.9,29.81,NE,44,17.3,17.3,59,0.00,-RA,SKC,0.00,130.0,WeatherDisplay:10.37,2013-02-22 20:20:00,
2013-02-22 14:25:00,65.5,50.8,29.81,NE,44,19.6,19.6,59,0.00,-RA,SKC,0.00,121.0,WeatherDisplay:10.37,2013-02-22 20:25:00,
2013-02-22 14:30:00,65.4,50.2,29.81,NE,51,19.6,19.6,58,0.00,-RA,SKC,0.00,229.0,WeatherDisplay:10.37,2013-02-22 20:30:00,
2013-02-22 14:35:00,65.5,50.3,29.81,NE,36,19.6,19.6,58,0.00,-RA,SKC,0.00,232.0,WeatherDisplay:10.37,2013-02-22 20:35:00,
2013-02-22 14:40:00,65.5,50.8,29.81,ENE,71,17.3,17.3,59,0.00,-RA,SKC,0.00,116.0,WeatherDisplay:10.37,2013-02-22 20:40:00,
2013-02-22 14:45:00,65.6,51.3,29.81,NNE,26,13.8,13.8,60,0.00,-RA,SKC,0.00,123.0,WeatherDisplay:10.37,2013-02-22 20:45:00,
2013-02-22 14:50:00,65.6,50.9,29.81,NE,52,19.6,19.6,59,0.00,-RA,SKC,0.00,137.0,WeatherDisplay:10.37,2013-02-22 20:50:00,
2013-02-22 14:55:00,65.6,51.8,29.81,NE,42,12.7,12.7,61,0.00,-RA,SKC,0.00,162.0,WeatherDisplay:10.37,2013-02-22 20:55:00,
2013-02-22 15:00:00,65.7,51.4,29.81,NNE,25,19.6,19.6,60,0.00,-RA,SKC,0.00,156.0,WeatherDisplay:10.37,2013-02-22 21:00:00,
2013-02-22 15:05:00,65.8,52.0,29.81,ENE,67,15.0,15.0,61,0.00,-RA,SKC,0.00,155.0,WeatherDisplay:10.37,2013-02-22 21:05:00,
2013-02-22 15:10:00,65.9,52.1,29.81,ENE,78,17.3,17.3,61,0.00,-RA,SKC,0.00,165.0,WeatherDisplay:10.37,2013-02-22 21:10:00,
2013-02-22 15:15:00,65.9,51.6,29.81,ENE,71,16.1,16.1,60,0.00,-RA,SKC,0.00,167.0,WeatherDisplay:10.37,2013-02-22 21:15:00,
2013-02-22 15:20:00,65.9,52.5,29.81,ENE,57,13.8,13.8,62,0.00,-RA,SKC,0.00,151.0,WeatherDisplay:10.37,2013-02-22 21:20:00,
2013-02-22 15:25:00,65.8,52.4,29.81,NE,51,15.0,15.0,62,0.00,-RA,SKC,0.00,167.0,WeatherDisplay:10.37,2013-02-22 21:25:00,
2013-02-22 15:30:00,65.8,52.4,29.81,ENE,67,12.7,12.7,62,0.00,-RA,SKC,0.00,190.0,WeatherDisplay:10.37,2013-02-22 21:30:00,
2013-02-22 15:35:00,65.8,52.0,29.81,ENE,57,18.4,18.4,61,0.00,-RA,SKC,0.00,195.0,WeatherDisplay:10.37,2013-02-22 21:35:00,
2013-02-22 15:40:00,65.9,52.1,29.81,NE,34,11.5,11.5,61,0.00,-RA,SKC,0.00,144.0,WeatherDisplay:10.37,2013-02-22 21:40:00,
2013-02-22 15:45:00,66.0,51.3,29.81,ENE,59,20.7,20.7,59,0.00,-RA,SKC,0.00,276.0,WeatherDisplay:10.37,2013-02-22 21:45:00,
2013-02-22 15:50:00,66.2,51.0,29.81,North,360,11.5,11.5,58,0.00,-RA,SKC,0.00,258.0,WeatherDisplay:10.37,2013-02-22 21:50:00,
2013-02-22 15:55:00,66.3,50.6,29.81,NE,43,26.5,26.5,57,0.00,-RA,SKC,0.00,134.0,WeatherDisplay:10.37,2013-02-22 21:55:00,
2013-02-22 16:00:00,66.2,51.4,29.79,NE,54,18.0,18.0,59,0.00,-RA,SKC,0.00,179.0,WeatherDisplay:10.37,2013-02-22 22:00:00,
2013-02-22 16:05:00,66.0,51.7,29.79,ENE,66,19.6,19.6,60,0.00,-RA,SKC,0.00,134.0,WeatherDisplay:10.37,2013-02-22 22:05:00,
2013-02-22 16:10:00,66.0,52.2,29.79,NE,40,19.6,19.6,61,0.00,-RA,SKC,0.00,54.0,WeatherDisplay:10.37,2013-02-22 22:10:00,
2013-02-22 16:15:00,65.7,51.9,29.80,ENE,70,19.6,19.6,61,0.00,-RA,SKC,0.00,81.0,WeatherDisplay:10.37,2013-02-22 22:15:00,
2013-02-22 16:20:00,65.7,52.3,29.80,NE,49,16.0,16.0,62,0.00,-RA,SKC,0.00,132.0,WeatherDisplay:10.37,2013-02-22 22:20:00,
2013-02-22 16:25:00,65.6,53.1,29.80,ENE,59,22.0,22.0,64,0.00,-RA,SKC,0.00,148.0,WeatherDisplay:10.37,2013-02-22 22:25:00,
2013-02-22 16:30:00,65.7,53.6,29.80,NE,46,18.4,18.4,65,0.00,-RA,SKC,0.00,93.0,WeatherDisplay:10.37,2013-02-22 22:30:00,
2013-02-22 16:35:00,65.6,52.7,29.80,NE,55,19.6,19.6,63,0.00,-RA,SKC,0.00,100.0,WeatherDisplay:10.37,2013-02-22 22:35:00,
2013-02-22 16:40:00,65.7,52.3,29.80,ENE,69,20.7,20.7,62,0.00,-RA,SKC,0.00,146.0,WeatherDisplay:10.37,2013-02-22 22:40:00,
2013-02-22 16:45:00,65.7,52.8,29.81,ENE,69,19.6,19.6,63,0.00,-RA,SKC,0.00,134.0,WeatherDisplay:10.37,2013-02-22 22:45:00,
2013-02-22 16:50:00,65.7,53.2,29.81,ENE,61,20.7,20.7,64,0.00,-RA,SKC,0.00,65.0,WeatherDisplay:10.37,2013-02-22 22:50:00,
2013-02-22 16:55:00,65.5,53.8,29.81,NE,42,13.8,13.8,66,0.00,-RA,SKC,0.00,77.0,WeatherDisplay:10.37,2013-02-22 22:55:00,
2013-02-22 17:00:00,65.5,53.8,29.81,NE,44,16.1,16.1,66,0.00,-RA,SKC,0.00,91.0,WeatherDisplay:10.37,2013-02-22 23:00:00,
2013-02-22 17:05:00,65.5,53.8,29.81,ENE,69,17.3,17.3,66,0.00,-RA,SKC,0.00,116.0,WeatherDisplay:10.37,2013-02-22 23:05:00,
2013-02-22 17:10:00,65.6,53.5,29.81,NE,52,17.3,17.3,65,0.00,-RA,SKC,0.00,109.0,WeatherDisplay:10.37,2013-02-22 23:10:00,
2013-02-22 17:15:00,65.7,53.2,29.81,NE,42,17.3,17.3,64,0.00,-RA,SKC,0.00,77.0,WeatherDisplay:10.37,2013-02-22 23:15:00,
2013-02-22 17:20:00,65.6,53.1,29.81,ENE,78,18.4,18.4,64,0.00,-RA,SKC,0.00,62.0,WeatherDisplay:10.37,2013-02-22 23:20:00,
2013-02-22 17:25:00,65.5,53.4,29.81,NE,55,17.3,17.3,65,0.00,-RA,SKC,0.00,63.0,WeatherDisplay:10.37,2013-02-22 23:25:00,
2013-02-22 17:30:00,65.4,52.9,29.80,ENE,74,18.4,18.4,64,0.00,-RA,SKC,0.00,62.0,WeatherDisplay:10.37,2013-02-22 23:30:00,
2013-02-22 17:35:00,65.4,52.5,29.80,ENE,77,19.6,19.6,63,0.00,-RA,SKC,0.00,79.0,WeatherDisplay:10.37,2013-02-22 23:35:00,
2013-02-22 17:40:00,65.4,52.5,29.80,ENE,63,20.7,20.7,63,0.00,-RA,SKC,0.00,69.0,WeatherDisplay:10.37,2013-02-22 23:40:00,
2013-02-22 17:45:00,65.4,51.6,29.80,ENE,76,25.3,25.3,61,0.00,-RA,SKC,0.00,53.0,WeatherDisplay:10.37,2013-02-22 23:45:00,
2013-02-22 17:50:00,65.4,51.6,29.80,NE,51,21.9,21.9,61,0.00,-RA,SKC,0.00,70.0,WeatherDisplay:10.37,2013-02-22 23:50:00,
2013-02-22 17:55:00,65.4,52.9,29.80,ENE,69,14.0,14.0,64,0.00,-RA,SKC,0.00,79.0,WeatherDisplay:10.37,2013-02-22 23:55:00,
2013-02-22 18:00:00,65.3,53.2,29.81,NE,36,13.8,13.8,65,0.00,-RA,SKC,0.00,63.0,WeatherDisplay:10.37,2013-02-23 00:00:00,
2013-02-22 18:05:00,65.2,53.6,29.81,ENE,73,16.1,16.1,66,0.00,OVC,SKC,0.00,46.0,WeatherDisplay:10.37,2013-02-23 00:05:00,
2013-02-22 18:10:00,65.0,53.8,29.81,ENE,68,15.0,15.0,67,0.00,OVC,SKC,0.00,26.0,WeatherDisplay:10.37,2013-02-23 00:10:00,
2013-02-22 18:15:00,65.0,54.2,29.81,ENE,68,16.1,16.1,68,0.00,OVC,SKC,0.00,18.0,WeatherDisplay:10.37,2013-02-23 00:15:00,
2013-02-22 18:20:00,64.8,54.0,29.81,NE,44,15.0,15.0,68,0.00,OVC,SKC,0.00,9.0,WeatherDisplay:10.37,2013-02-23 00:20:00,
2013-02-22 18:25:00,64.7,54.3,29.81,ENE,58,11.5,11.5,69,0.00,OVC,SKC,0.00,7.0,WeatherDisplay:10.37,2013-02-23 00:25:00,
2013-02-22 18:30:00,64.6,54.6,29.82,ENE,72,11.0,11.0,70,0.00,OVC,SKC,0.00,0.0,WeatherDisplay:10.37,2013-02-23 00:30:00,
2013-02-22 18:35:00,64.5,55.3,29.82,ENE,60,11.5,11.5,72,0.00,OVC,SKC,0.00,0.0,WeatherDisplay:10.37,2013-02-23 00:35:00,
2013-02-22 18:40:00,64.3,55.5,29.82,NE,51,10.4,10.4,73,0.00,OVC,SKC,0.00,0.0,WeatherDisplay:10.37,2013-02-23 00:40:00,
2013-02-22 18:45:00,64.1,55.6,29.83,NE,42,10.4,10.4,74,0.00,OVC,SKC,0.00,0.0,WeatherDisplay:10.37,2013-02-23 00:45:00,
2013-02-22 18:50:00,64.0,55.5,29.83,ENE,59,10.4,10.4,74,0.00,OVC,SKC,0.00,0.0,WeatherDisplay:10.37,2013-02-23 00:50:00,
2013-02-22 18:55:00,64.0,55.5,29.83,ENE,58,11.5,11.5,74,0.00,OVC,SKC,0.00,0.0,WeatherDisplay:10.37,2013-02-23 00:55:00,
2013-02-22 19:00:00,63.9,55.4,29.84,NE,56,9.2,9.2,74,0.00,OVC,SKC,0.00,0.0,WeatherDisplay:10.37,2013-02-23 01:00:00,
2013-02-22 19:05:00,63.8,55.4,29.84,NE,42,10.4,10.4,74,0.00,-RA,SKC,0.00,0.0,WeatherDisplay:10.37,2013-02-23 01:05:00,
2013-02-22 19:10:00,63.8,55.7,29.84,ENE,57,8.1,8.1,75,0.00,-RA,SKC,0.00,0.0,WeatherDisplay:10.37,2013-02-23 01:10:00,
2013-02-22 19:15:00,63.7,55.6,29.84,NE,44,11.5,11.5,75,0.00,-RA,SKC,0.00,0.0,WeatherDisplay:10.37,2013-02-23 01:15:00,
2013-02-22 19:20:00,63.5,55.4,29.84,NNE,27,8.1,8.1,75,0.00,-RA,SKC,0.00,0.0,WeatherDisplay:10.37,2013-02-23 01:20:00,
2013-02-22 19:25:00,63.3,55.2,29.84,NE,47,10.4,10.4,75,0.00,-RA,SKC,0.00,0.0,WeatherDisplay:10.37,2013-02-23 01:25:00,
2013-02-22 19:30:00,63.2,55.1,29.85,NE,42,8.1,8.1,75,0.00,-RA,SKC,0.00,0.0,WeatherDisplay:10.37,2013-02-23 01:30:00,
2013-02-22 19:35:00,63.1,55.0,29.85,NNE,13,8.1,8.1,75,0.00,-RA,SKC,0.00,0.0,WeatherDisplay:10.37,2013-02-23 01:35:00,
2013-02-22 19:40:00,63.0,54.6,29.85,NNE,32,7.0,7.0,74,0.00,-RA,SKC,0.00,0.0,WeatherDisplay:10.37,2013-02-23 01:40:00,
2013-02-22 19:45:00,62.9,54.5,29.86,NNE,28,10.4,10.4,74,0.00,-RA,SKC,0.00,0.0,WeatherDisplay:10.37,2013-02-23 01:45:00,
2013-02-22 19:50:00,62.9,54.5,29.86,NE,46,10.4,10.4,74,0.00,-RA,SKC,0.00,0.0,WeatherDisplay:10.37,2013-02-23 01:50:00,
2013-02-22 19:55:00,62.9,54.1,29.86,NE,42,11.5,11.5,73,0.00,-RA,SKC,0.00,0.0,WeatherDisplay:10.37,2013-02-23 01:55:00,
2013-02-22 20:04:00,63.1,53.9,29.86,NNE,25,11.5,11.5,72,0.00,CLR,SKC,0.00,0.0,WeatherDisplay:10.37,2013-02-23 02:04:00,
2013-02-22 20:09:00,63.2,53.6,29.86,NE,49,10.4,10.4,71,0.00,CLR,SKC,0.00,0.0,WeatherDisplay:10.37,2013-02-23 02:09:00,
2013-02-22 20:14:00,63.1,53.5,29.87,NE,36,12.7,12.7,71,0.00,CLR,SKC,0.00,0.0,WeatherDisplay:10.37,2013-02-23 02:14:00,
2013-02-22 20:19:00,63.2,53.6,29.87,NE,44,11.5,11.5,71,0.00,CLR,SKC,0.00,0.0,WeatherDisplay:10.37,2013-02-23 02:19:00,
2013-02-22 20:24:00,63.1,53.5,29.87,NNE,28,6.9,6.9,71,0.00,CLR,SKC,0.00,0.0,WeatherDisplay:10.37,2013-02-23 02:24:00,
2013-02-22 20:29:00,63.1,53.9,29.87,ENE,65,13.0,13.0,72,0.00,CLR,SKC,0.00,0.0,WeatherDisplay:10.37,2013-02-23 02:29:00,
2013-02-22 20:34:00,63.1,53.9,29.87,NNE,22,9.2,9.5,72,0.00,CLR,SKC,0.00,0.0,WeatherDisplay:10.37,2013-02-23 02:34:00,
2013-02-22 20:39:00,63.2,54.0,29.87,NNE,24,11.5,11.5,72,0.00,CLR,SKC,0.00,0.0,WeatherDisplay:10.37,2013-02-23 02:39:00,
2013-02-22 20:44:00,63.2,54.0,29.87,NE,40,11.5,11.5,72,0.00,CLR,SKC,0.00,0.0,WeatherDisplay:10.37,2013-02-23 02:44:00,
2013-02-22 20:49:00,63.2,54.0,29.87,ENE,65,11.5,11.5,72,0.00,CLR,SKC,0.00,0.0,WeatherDisplay:10.37,2013-02-23 02:49:00,
2013-02-22 20:54:00,63.1,54.3,29.87,NNE,30,10.4,10.4,73,0.00,CLR,SKC,0.00,0.0,WeatherDisplay:10.37,2013-02-23 02:54:00,
2013-02-22 20:59:00,63.1,53.9,29.87,NNE,29,11.5,11.5,72,0.00,CLR,SKC,0.00,0.0,WeatherDisplay:10.37,2013-02-23 02:59:00,
2013-02-22 21:04:00,63.1,54.3,29.87,NNE,23,6.0,6.0,73,0.00,CLR,SKC,0.00,0.0,WeatherDisplay:10.37,2013-02-23 03:04:00,
2013-02-22 21:09:00,62.9,54.1,29.87,NNE,32,10.4,10.4,73,0.00,CLR,SKC,0.00,0.0,WeatherDisplay:10.37,2013-02-23 03:09:00,
2013-02-22 21:14:00,62.7,53.9,29.88,NE,34,8.1,8.1,73,0.00,CLR,SKC,0.00,0.0,WeatherDisplay:10.37,2013-02-23 03:14:00,
2013-02-22 21:19:00,62.6,53.8,29.88,NNE,19,11.0,11.0,73,0.00,CLR,SKC,0.00,0.0,WeatherDisplay:10.37,2013-02-23 03:19:00,
2013-02-22 21:24:00,62.5,53.7,29.88,NNE,33,11.5,11.5,73,0.00,CLR,SKC,0.00,0.0,WeatherDisplay:10.37,2013-02-23 03:24:00,
2013-02-22 21:29:00,62.4,53.3,29.88,NE,40,11.5,11.5,72,0.00,CLR,SKC,0.00,0.0,WeatherDisplay:10.37,2013-02-23 03:29:00,
2013-02-22 21:34:00,62.3,53.5,29.88,NE,44,9.2,9.2,73,0.00,CLR,SKC,0.00,0.0,WeatherDisplay:10.37,2013-02-23 03:34:00,
2013-02-22 21:39:00,62.3,53.5,29.88,NE,35,7.0,7.0,73,0.00,CLR,SKC,0.00,0.0,WeatherDisplay:10.37,2013-02-23 03:39:00,
2013-02-22 21:44:00,62.3,53.5,29.89,NE,40,6.9,6.9,73,0.00,CLR,SKC,0.00,0.0,WeatherDisplay:10.37,2013-02-23 03:44:00,
2013-02-22 21:49:00,62.2,53.4,29.89,NE,43,14.0,14.0,73,0.00,CLR,SKC,0.00,0.0,WeatherDisplay:10.37,2013-02-23 03:49:00,
2013-02-22 21:54:00,62.2,53.1,29.89,NNE,20,15.0,15.0,72,0.00,CLR,SKC,0.00,0.0,WeatherDisplay:10.37,2013-02-23 03:54:00,
2013-02-22 21:59:00,62.1,53.0,29.88,NNE,30,10.4,10.4,72,0.00,CLR,SKC,0.00,0.0,WeatherDisplay:10.37,2013-02-23 03:59:00,
2013-02-22 22:04:00,62.1,53.7,29.88,NE,52,11.5,11.5,74,0.00,CLR,SKC,0.00,0.0,WeatherDisplay:10.37,2013-02-23 04:04:00,
2013-02-22 22:09:00,62.2,53.8,29.88,NNE,31,9.2,9.2,74,0.00,CLR,SKC,0.00,0.0,WeatherDisplay:10.37,2013-02-23 04:09:00,
2013-02-22 22:14:00,62.2,53.4,29.89,North,5,11.5,11.5,73,0.00,CLR,SKC,0.00,0.0,WeatherDisplay:10.37,2013-02-23 04:14:00,
2013-02-22 22:19:00,62.1,53.3,29.89,NNE,15,15.0,15.0,73,0.00,CLR,SKC,0.00,0.0,WeatherDisplay:10.37,2013-02-23 04:19:00,
2013-02-22 22:24:00,62.0,53.2,29.89,North,10,12.7,12.7,73,0.00,CLR,SKC,0.00,0.0,WeatherDisplay:10.37,2013-02-23 04:24:00,
2013-02-22 22:29:00,61.9,53.5,29.89,North,355,9.2,9.2,74,0.00,CLR,SKC,0.00,0.0,WeatherDisplay:10.37,2013-02-23 04:29:00,
2013-02-22 22:34:00,61.9,53.5,29.89,NNE,23,11.5,11.5,74,0.00,CLR,SKC,0.00,0.0,WeatherDisplay:10.37,2013-02-23 04:34:00,
2013-02-22 22:39:00,61.8,53.4,29.89,NNE,30,9.2,9.2,74,0.00,CLR,SKC,0.00,0.0,WeatherDisplay:10.37,2013-02-23 04:39:00,
2013-02-22 22:44:00,61.7,53.3,29.89,NNE,21,10.4,10.4,74,0.00,CLR,SKC,0.00,0.0,WeatherDisplay:10.37,2013-02-23 04:44:00,
2013-02-22 22:49:00,61.8,53.8,29.89,NNE,28,12.7,12.7,75,0.00,CLR,SKC,0.00,0.0,WeatherDisplay:10.37,2013-02-23 04:49:00,
2013-02-22 22:54:00,61.6,53.2,29.89,NNW,347,10.4,10.4,74,0.00,CLR,SKC,0.00,0.0,WeatherDisplay:10.37,2013-02-23 04:54:00,
2013-02-22 22:59:00,61.6,53.6,29.89,North,355,11.5,11.5,75,0.00,CLR,SKC,0.00,0.0,WeatherDisplay:10.37,2013-02-23 04:59:00,
2013-02-22 23:00:00,61.6,53.2,29.89,NNE,26,11.0,11.0,74,0.00,OVC,SKC,0.00,0.0,WeatherDisplay:10.37,2013-02-23 05:00:00,
2013-02-22 23:05:00,61.5,53.1,29.89,NW,326,13.8,13.8,74,0.00,-RA,SKC,0.00,0.0,WeatherDisplay:10.37,2013-02-23 05:05:00,
2013-02-22 23:10:00,61.5,52.8,29.90,North,11,16.1,16.1,73,0.00,-RA,SKC,0.00,0.0,WeatherDisplay:10.37,2013-02-23 05:10:00,
2013-02-22 23:15:00,61.5,52.8,29.90,North,5,12.7,12.7,73,0.00,-RA,SKC,0.00,0.0,WeatherDisplay:10.37,2013-02-23 05:15:00,
2013-02-22 23:20:00,61.5,52.8,29.90,NNE,30,13.8,13.8,73,0.00,-RA,SKC,0.00,0.0,WeatherDisplay:10.37,2013-02-23 05:20:00,
2013-02-22 23:25:00,61.5,52.8,29.89,NNE,27,15.0,15.0,73,0.00,-RA,SKC,0.00,0.0,WeatherDisplay:10.37,2013-02-23 05:25:00,
2013-02-22 23:30:00,61.5,52.8,29.89,NNE,24,11.5,11.5,73,0.00,-RA,SKC,0.00,0.0,WeatherDisplay:10.37,2013-02-23 05:30:00,
2013-02-22 23:35:00,61.4,52.3,29.89,NNE,19,11.5,11.5,72,0.00,-RA,SKC,0.00,0.0,WeatherDisplay:10.37,2013-02-23 05:35:00,
2013-02-22 23:40:00,61.5,52.8,29.89,North,5,11.5,11.5,73,0.00,-RA,SKC,0.00,0.0,WeatherDisplay:10.37,2013-02-23 05:40:00,
2013-02-22 23:45:00,61.4,52.7,29.89,NNW,347,8.1,8.1,73,0.00,-RA,SKC,0.00,0.0,WeatherDisplay:10.37,2013-02-23 05:45:00,
2013-02-22 23:50:00,61.2,52.5,29.89,North,360,10.4,10.4,73,0.00,-RA,SKC,0.00,0.0,WeatherDisplay:10.37,2013-02-23 05:50:00,
2013-02-22 23:55:00,61.0,52.3,29.89,North,355,10.4,10.4,73,0.00,-RA,SKC,0.00,0.0,WeatherDisplay:10.37,2013-02-23 05:55:00,